Hourly Weather Roundup
Issued by NWS Central Illinois

Home | Current Version | Previous Version | Text Only | Print | Product List | Glossary On
Versions: 1 2 3 4 5 6 7 8 9 10 11 12 13 14 15 16 17 18 19 20 21 22 23 24 25 26 27 28 29 30 31 32 33 34 35 36 37 38 39 40 41 42 43 44 45 46 47 48 49 50
000
NZUS43 KILX 032110
HWRILX

AREA WEATHER ROUNDUP
NATIONAL WEATHER SERVICE, LINCOLN IL
400 PM CDT FRI JUL 03 2015


CITY           SKY/WX    TMP DP  RH WIND       PRES   REMARKS
BLOOMINGTON    MOSUNNY   78  63  60 NE7       29.94F HX  80
CHAMPAIGN      LGT RAIN  74  64  71 NE9       29.92F
DANVILLE       PTSUNNY   74  64  71 N8        29.89S
DECATUR        PTSUNNY   77  66  68 NE9       29.91F
EFFINGHAM      MOSUNNY   79  64  60 N6        29.90S HX  81
FLORA          CLOUDY    70  62  76 S6        29.89R
GALESBURG      MOSUNNY   78  59  51 N3        29.94S
JACKSONVILLE   MOSUNNY   80  66  62 N6        29.92F HX  83
LACON          SUNNY     77  57  50 N5        29.93S
LAWRENCEVILLE  MOSUNNY   79  68  69 NE8       29.86F HX  81
LITCHFIELD     MOSUNNY   76  65  68 N9        29.91F
$$


CITY           SKY/WX    TMP DP  RH WIND       PRES   REMARKS
LINCOLN        MOSUNNY   79  62  55 E6        29.92S HX  80
MACOMB         MOSUNNY   77  62  58 N3        29.95F
MATTOON        PTSUNNY   77  66  68 N13       29.88F
MT CARMEL AP   PTSUNNY   81  66  61 N6        29.85F HX  83
OLNEY-NOBLE AP CLOUDY    77  68  73 N3        29.87S
PARIS          PTSUNNY   78  67  68 N9        29.90F HX  80
PEORIA         MOSUNNY   82  61  48 VRB7      29.93F HX  83
PONTIAC        SUNNY     78  60  52 NE7       29.94F HX  80
RANTOUL        CLOUDY    76  62  61 NE9       29.93S
ROBINSON       PTSUNNY   79  67  67 N10       29.87S HX  81
SPRINGFIELD    MOSUNNY   81  65  58 NE5       29.92S HX  83
TAYLORVILLE    PTSUNNY   75  68  78 N9        29.92S
$$

...REGIONAL REPORTS...


CITY           SKY/WX    TMP DP  RH WIND       PRES   REMARKS
CHICAGO O`HARE PTSUNNY   76  54  46 NE7       29.93F
KANKAKEE       MOSUNNY   76  56  50 NE5       29.93F
MOLINE         SUNNY     79  58  48 N3        29.94F HX  80
MOUNT STERLING NOT AVBL
MOUNT VERNON   MOSUNNY   82  68  61 CALM      29.87F HX  85
PITTSFIELD     MOSUNNY   79  62  56 N3        29.94S HX  80
QUINCY         MOSUNNY   79  60  52 N8        29.93F HX  80
ROCKFORD       MOSUNNY   77  55  46 S6        29.95F
$$


CITY           SKY/WX    TMP DP  RH WIND       PRES   REMARKS
BURLINGTON     SUNNY     78  60  53 E6        29.94F
CEDAR RAPIDS   SUNNY     76  54  46 NW5       29.95F
DES MOINES     SUNNY     79  52  38 CALM      29.96F
KIRKSVILLE     SUNNY     78  58  49 VRB3      29.96F
OTTUMWA        SUNNY     77  60  55 VRB3      29.94F
ST LOUIS       MOSUNNY   83  65  54 N6        29.90F HX  85
$$


CITY           SKY/WX    TMP DP  RH WIND       PRES   REMARKS
TERRE HAUTE    CLOUDY    76  66  71 NE9       29.88S
EVANSVILLE     PTSUNNY   81  70  69 NE6       29.84F HAZE    HX  84
INDIANAPOLIS   CLOUDY    74  62  66 N12       29.87F
LAFAYETTE      PTSUNNY   74  62  66 NE8       29.91S
MADISON        MOSUNNY   76  53  44 VRB5      29.94F
MILWAUKEE      PTSUNNY   70  52  52 E10       29.95F
$$




USA.gov is the U.S. government's official web portal to all federal, state and local government web resources and services.